STARLINK-1133 (45064 NORAD) Tracking and Keplerian Element Data

This shows tracking and keplerian element data for the satellite.

Feedback or suggestion? Click here.




ElementValue
Catalog45064
NameSTARLINK-1133
Epoch Orbit182
Epoch Day47.91667824
Epoch Year2020
RAAN144.3427
Inclination52.9964
Eccentricity0.0001331
Argument of Perigee43.9982
Mean Anonmoly224.5333
Mean Motion15.73209192
Decay Rate0.0027807
L11 45064U 20006W 20047.91667824 .00278070 00000-0 19196-2 0 9995
L22 45064 52.9964 144.3427 0001331 43.9982 224.5333 15.73209192 1826

Live tracking and technical data element details for STARLINK-1133 (NORAD 45064). STARLINK-1133 can be tracked NOW for your location showing map with azimuth and elevation plus other details from your city location.

Track the satellite on the map from your city or location and see movement details for azimuth, elevation, latitude, longitude, range, height, and movement on the map or in text.







IsCatalogInMostPopularTable: catalog: 45064, numindb: -1

Insert: records affected: 1


GetName: 45064 STARLINK-1133

Hit Count: inserted at: Tue, 18 Feb 2020 00:29:09 GMT